Location: ????????
(55.3155°N, 39.2900°E)
Time: 05:41:17
(UTC+00:00)

CZ-2C R/B - Pass Details

Date: 14 April 2024
Orbit: 666 x 779 km, 98.4° (Epoch: 22 May)

Event Time Altitude Azimuth Distance (km) Brightness Sun altitude
Rises 00:43:26 0° 18° (NNE) 3,259 6.8 -13.0°
Reaches altitude 10° 00:45:50 10° 23° (NNE) 2,336 6.0 -12.7°
Maximum altitude 00:50:52 51° 100° (E) 979 3.3 -12.1°
Drops below altitude 10° 00:55:53 10° 176° (S) 2,327 4.7 -11.5°
Sets 00:58:15 0° 181° (S) 3,245 5.4 -11.3°
